Weather History for Chehalis, WA

Change the Weather History Date:

Friday, February 22, 2013

  Actual Average (KOLM) Record (KOLM)
Temperature  
Mean Temperature 42 °F 42 °F  
Max Temperature 48 °F 50 °F 64 °F (1973)
Min Temperature 37 °F 33 °F 21 °F (1973)
Degree Days  
Heating Degree Days 22 24  
Month to date heating degree days 529  
Since 1 July heating degree days 3580  
Cooling Degree Days 0 0  
Month to date cooling degree days 0  
Year to date cooling degree days 0  
Moisture  
Dew Point 39 °F    
Average Humidity 90    
Maximum Humidity 100    
Minimum Humidity 76    
Precipitation  
Precipitation 0.50 in 0.18 in 1.31 in (2013)
Month to date precipitation 4.20  
Year to date precipitation 12.04  
Sea Level Pressure  
Sea Level Pressure 29.94 in    
Wind  
Wind Speed 9 mph (SSW)    
Max Wind Speed 18 mph    
Max Gust Speed 28 mph    
Visibility 8 miles    
Events Rain    
T = Trace of Precipitation, MM = Missing Value Source: NWS Daily Summary

Daily Weather History Graph

Daily Weather History Graph

Search for Another Location

Airport:

Trip Planner

Search our weather history database for the weather conditions in past years. The results will help you decide how hot, cold, wet, or windy it might be!

Date:

Astronomy

Feb. 22, 2013 Rise Set
Actual Time 7:03 AM PST 5:48 PM PST
Civil Twilight 6:32 AM PST 6:18 PM PST
Nautical Twilight 5:57 AM PST 6:53 PM PST
Astronomical Twilight 5:22 AM PST 7:28 PM PST
Moon 2:58 PM PST (2/22) 4:59 AM PST (2/22)
Length of Visible Light 11h 45m
Length of Day
10h 44m
Waxing Gibbous, 91% of the Moon is Illuminated
Feb 22
Waxing Gibbous
Feb 25
Full
Mar 4
Last Quarter
Mar 11
New
Mar 19
First Quarter

Hourly Weather History & Observations

Time (PST) Temp. Windchill Dew Point Humidity Pressure Visibility Wind Dir Wind Speed Gust Speed Precip Events Conditions
12:15 AM 41.0 °F 39.0 °F 39.2 °F 93% 30.12 in 5.0 mi SSW 3.5 mph - N/A   Overcast
12:35 AM 41.0 °F 38.0 °F 39.2 °F 93% 30.13 in 5.0 mi SSW 4.6 mph - N/A   Overcast
12:55 AM 41.0 °F 39.0 °F 39.2 °F 93% 30.12 in 5.0 mi South 3.5 mph - N/A Rain Light Rain
1:15 AM 41.0 °F 38.0 °F 39.2 °F 93% 30.12 in 6.0 mi South 4.6 mph - 0.01 in Rain Light Rain
1:35 AM 41.0 °F 37.1 °F 41.0 °F 100% 30.11 in 6.0 mi South 5.8 mph - 0.01 in   Overcast
1:55 AM 41.0 °F 39.0 °F 41.0 °F 100% 30.11 in 5.0 mi SW 3.5 mph - 0.01 in   Overcast
2:15 AM 41.0 °F 37.1 °F 39.2 °F 93% 30.10 in 8.0 mi South 5.8 mph - N/A   Overcast
2:35 AM 41.0 °F 35.2 °F 39.2 °F 93% 30.09 in 5.0 mi South 9.2 mph - N/A Rain Light Rain
2:55 AM 41.0 °F 35.2 °F 39.2 °F 93% 30.08 in 5.0 mi South 9.2 mph 17.3 mph N/A   Overcast
3:15 AM 41.0 °F 34.3 °F 39.2 °F 93% 30.07 in 9.0 mi South 11.5 mph - N/A   Overcast
3:35 AM 41.0 °F 34.7 °F 39.2 °F 93% 30.06 in 10.0 mi South 10.4 mph 16.1 mph 0.01 in   Overcast
3:55 AM 41.0 °F 34.3 °F 39.2 °F 93% 30.05 in 10.0 mi South 11.5 mph 17.3 mph 0.01 in   Overcast
4:15 AM 41.0 °F 34.3 °F 39.2 °F 93% 30.04 in 10.0 mi South 11.5 mph 19.6 mph N/A   Overcast
4:35 AM 41.0 °F 33.9 °F 39.2 °F 93% 30.03 in 10.0 mi SSE 12.7 mph 20.7 mph N/A   Overcast
5:15 AM 41.0 °F 33.5 °F 39.2 °F 93% 30.02 in 10.0 mi South 13.8 mph 19.6 mph N/A   Overcast
5:35 AM 42.8 °F 36.2 °F 39.2 °F 87% 30.01 in 10.0 mi SSE 12.7 mph 19.6 mph N/A   Overcast
5:55 AM 42.8 °F 35.8 °F 39.2 °F 87% 29.99 in 9.0 mi South 13.8 mph 19.6 mph N/A   Overcast
6:15 AM 42.8 °F 34.8 °F 39.2 °F 87% 29.97 in 10.0 mi South 17.3 mph 24.2 mph N/A   Overcast
6:35 AM 42.8 °F 35.1 °F 39.2 °F 87% 29.96 in 10.0 mi South 16.1 mph 24.2 mph N/A   Overcast
6:55 AM 42.8 °F 34.8 °F 39.2 °F 87% 29.95 in 10.0 mi South 17.3 mph 25.3 mph N/A   Overcast
7:15 AM 42.8 °F 36.2 °F 39.2 °F 87% 29.95 in 7.0 mi South 12.7 mph 25.3 mph N/A Rain Light Rain
7:35 AM 42.8 °F 35.1 °F 41.0 °F 93% 29.95 in 4.0 mi SSW 16.1 mph 21.9 mph 0.01 in Rain Light Rain
8:15 AM 42.8 °F 34.8 °F 39.2 °F 87% 29.95 in 5.0 mi South 17.3 mph 21.9 mph 0.03 in Rain Light Rain
8:35 AM 41.0 °F 32.5 °F 39.2 °F 93% 29.92 in 5.0 mi South 17.3 mph 25.3 mph 0.05 in   Mostly Cloudy
8:55 AM 41.0 °F 34.3 °F 39.2 °F 93% 29.92 in 9.0 mi South 11.5 mph 20.7 mph 0.07 in Rain Light Rain
9:15 AM 41.0 °F 33.5 °F 39.2 °F 93% 29.91 in 7.0 mi SSW 13.8 mph 20.7 mph 0.02 in   Overcast
9:35 AM 41.0 °F 33.1 °F 39.2 °F 93% 29.92 in 5.0 mi South 15.0 mph 20.7 mph 0.04 in   Mostly Cloudy
9:55 AM 41.0 °F 33.1 °F 39.2 °F 93% 29.91 in 4.0 mi South 15.0 mph 24.2 mph 0.07 in   Mostly Cloudy
10:15 AM 41.0 °F 32.5 °F 39.2 °F 93% 29.89 in 5.0 mi South 17.3 mph 24.2 mph 0.02 in   Mostly Cloudy
10:35 AM 41.0 °F 32.8 °F 39.2 °F 93% 29.90 in 5.0 mi South 16.1 mph 20.7 mph 0.04 in   Scattered Clouds
10:55 AM 41.0 °F 33.1 °F 39.2 °F 93% 29.89 in 5.0 mi South 15.0 mph 23.0 mph 0.08 in Rain Light Rain
11:15 AM 41.0 °F 33.5 °F 39.2 °F 93% 29.89 in 5.0 mi South 13.8 mph 25.3 mph 0.03 in   Mostly Cloudy
11:35 AM 41.0 °F 32.2 °F 39.2 °F 93% 29.87 in 5.0 mi South 18.4 mph 24.2 mph 0.07 in   Scattered Clouds
11:55 AM 41.0 °F 33.1 °F 39.2 °F 93% 29.86 in 5.0 mi South 15.0 mph 23.0 mph 0.09 in   Mostly Cloudy
12:15 PM 41.0 °F 33.5 °F 39.2 °F 93% 29.85 in 5.0 mi South 13.8 mph 24.2 mph 0.01 in   Scattered Clouds
12:35 PM 42.8 °F 34.8 °F 41.0 °F 93% 29.84 in 5.0 mi South 17.3 mph 25.3 mph 0.03 in   Scattered Clouds
12:55 PM 41.0 °F 33.1 °F 41.0 °F 100% 29.85 in 4.0 mi South 15.0 mph 21.9 mph 0.06 in   Mostly Cloudy
1:15 PM 41.0 °F 33.1 °F 41.0 °F 100% 29.84 in 3.0 mi South 15.0 mph 21.9 mph N/A   Mostly Cloudy
1:35 PM 42.8 °F 35.4 °F 41.0 °F 93% 29.82 in 2.5 mi South 15.0 mph 21.9 mph 0.01 in   Mostly Cloudy
1:55 PM 42.8 °F 36.2 °F 41.0 °F 93% 29.82 in 2.0 mi South 12.7 mph 19.6 mph 0.04 in   Mostly Cloudy
2:15 PM 42.8 °F 35.8 °F 41.0 °F 93% 29.82 in 1.5 mi South 13.8 mph - 0.04 in Rain Rain
2:35 PM 44.6 °F 39.7 °F 42.8 °F 93% 29.82 in 9.0 mi South 9.2 mph - 0.04 in   Mostly Cloudy
2:55 PM 44.6 °F 41.4 °F 42.8 °F 93% 29.82 in 10.0 mi SSW 5.8 mph - 0.04 in   Overcast
3:15 PM 46.4 °F 42.4 °F 44.6 °F 93% 29.83 in 10.0 mi SW 8.1 mph - N/A Rain Light Rain
3:35 PM 46.4 °F 42.9 °F 41.0 °F 81% 29.83 in 9.0 mi SW 6.9 mph 16.1 mph N/A   Mostly Cloudy
3:55 PM 48.2 °F - 41.0 °F 76% 29.84 in 10.0 mi WSW 8.1 mph - N/A   Mostly Cloudy
4:15 PM 46.4 °F 41.9 °F 41.0 °F 81% 29.84 in 10.0 mi WSW 9.2 mph 18.4 mph N/A   Mostly Cloudy
4:35 PM 46.4 °F 41.9 °F 39.2 °F 76% 29.85 in 10.0 mi West 9.2 mph 17.3 mph N/A   Scattered Clouds
4:55 PM 46.4 °F 42.9 °F 39.2 °F 76% 29.85 in 9.0 mi West 6.9 mph 18.4 mph N/A   Scattered Clouds
5:15 PM 44.6 °F 37.4 °F 39.2 °F 81% 29.88 in 3.0 mi West 16.1 mph 27.6 mph N/A Rain Light Rain
5:35 PM 41.0 °F 36.4 °F 37.4 °F 87% 29.87 in 6.0 mi WSW 6.9 mph - 0.01 in   Scattered Clouds
5:55 PM 41.0 °F 36.4 °F 37.4 °F 87% 29.88 in 7.0 mi WSW 6.9 mph - 0.01 in Rain Light Rain
6:15 PM 39.2 °F 33.6 °F 37.4 °F 93% 29.88 in 10.0 mi WSW 8.1 mph - N/A   Scattered Clouds
6:35 PM 39.2 °F 35.0 °F 35.6 °F 87% 29.89 in 10.0 mi SW 5.8 mph - N/A   Mostly Cloudy
6:55 PM 39.2 °F - 35.6 °F 87% 29.90 in 10.0 mi Calm Calm - N/A   Mostly Cloudy
7:15 PM 39.2 °F 37.0 °F 35.6 °F 87% 29.92 in 10.0 mi WSW 3.5 mph - N/A   Scattered Clouds
7:35 PM 39.2 °F 35.0 °F 35.6 °F 87% 29.92 in 10.0 mi SW 5.8 mph - N/A   Scattered Clouds
7:55 PM 37.4 °F 32.8 °F 35.6 °F 93% 29.92 in 8.0 mi SW 5.8 mph - N/A   Mostly Cloudy
8:15 PM 37.4 °F 34.9 °F 35.6 °F 93% 29.92 in 10.0 mi SW 3.5 mph - N/A   Mostly Cloudy
8:35 PM 39.2 °F 37.0 °F 35.6 °F 87% 29.93 in 10.0 mi SW 3.5 mph - N/A   Mostly Cloudy
8:55 PM 39.2 °F 35.9 °F 35.6 °F 87% 29.94 in 10.0 mi South 4.6 mph - N/A   Mostly Cloudy
9:15 PM 39.2 °F 35.9 °F 35.6 °F 87% 29.95 in 8.0 mi SW 4.6 mph - N/A Rain Light Rain
9:35 PM 39.2 °F 33.0 °F 33.8 °F 81% 29.95 in 10.0 mi SW 9.2 mph 17.3 mph N/A   Overcast
9:55 PM 39.2 °F 33.0 °F 33.8 °F 81% 29.95 in 10.0 mi SSW 9.2 mph 18.4 mph N/A   Overcast
10:15 PM 39.2 °F 35.0 °F 33.8 °F 81% 29.97 in 10.0 mi SSW 5.8 mph - N/A   Overcast
10:35 PM 37.4 °F 32.1 °F 33.8 °F 87% 29.98 in 10.0 mi South 6.9 mph - N/A   Overcast
10:55 PM 37.4 °F 32.1 °F 32.0 °F 81% 29.98 in 10.0 mi South 6.9 mph - N/A   Mostly Cloudy
11:15 PM 37.4 °F 32.8 °F 33.8 °F 87% 29.99 in 10.0 mi South 5.8 mph - N/A   Overcast
11:35 PM 37.4 °F 32.1 °F 33.8 °F 87% 30.01 in 10.0 mi South 6.9 mph - 0.01 in   Overcast
11:55 PM 37.4 °F 32.1 °F 33.8 °F 87% 30.01 in 10.0 mi South 6.9 mph - 0.01 in   Overcast